User: anonymous   Login
Location: Niagara
(43.2500°N, 79.0670°W)
Time: 21:56:27
(UTC-04:00)
Language:

N. Korean satellite - Orbit

View from above orbital plane
View from above orbital plane
View from above satellite
View from above satellite

Ground track
Ground track

The orbit data is extracted from the following two-line orbital elements,

1 39026U 12072A   18197.58264392 +.00001053 +00000-0 +41867-4 0  9996
2 39026 097.2099 206.9488 0037996 216.6909 143.1728 15.26834162310088
Epoch (UTC): 16 July 2018 13:59:00
Eccentricity: 0.0037996
inclination: 97.2099°
perigee height: 459 km
apogee height: 511 km
right ascension of ascending node: 206.9488°
argument of perigee: 216.6909°
revolutions per day: 15.26834162
mean anomaly at epoch: 143.1728°
orbit number at epoch: 31008

The dashed part of the orbit path shows where the satellite is in the earth's shadow,  

DLR